NEE-01 PEGASO

Last updated on Mon Feb 16 2026 00:03:49 GMT+0000 (Coordinated Universal Time)

1 39151U 13018B 26046.31526063 .00004495 00000+0 43869-3 0 9990 2 39151 98.1005 186.6402 0012525 201.5928 158.4763 14.92904924692514
UTC large
Height (km)
Speed (km/s)
/
Latitude / Longitude
Inclination (degrees)
Orbital Period (minutes)
Azimuth
Elevation
Range (km)
Doppler Factor

Next 0 passes for location: London (51.5072 / 0.1276)

Sorry there are no passes over London.